sat.trackr.live / text

‹ back to catalog

STARLINK-2646

NORAD 48642 · 2021-044E

PAYLOAD ACTIVE UNKNOWN

§ Identity

Operator
Country
US
Launch date
2021-05-26
Launch site
AFETR
Launch vehicle
Mass (kg)
RCS (m²)

Purposes: comms

External: N2YO · Heavens-Above · Gunter

§ Orbital elements

Epoch: 2026-09-19T16:50:38.884416Z

Period
94.01 min
Inclination
53.1586°
Eccentricity
0.0001093
Mean motion
15.31704313 rev/d
Perigee alt
470.0 km
Apogee alt
471.5 km
Semi-major
6,848.9 km
B*
-2.8460e-5
RAAN
291.0399°
Arg perigee
67.0466°
Mean anomaly
293.0651°
Rev number
29,355

§ Raw data

STARLINK-26461 48642U 21044E   26262.70183894 -.00001248  00000+0 -28460-4 0  99932 48642  53.1586 291.0399 0001093  67.0466 293.0651 15.31704313293557

JSON: /api/v1/satellites/48642 · /tle

For live sub-satellite position, see the globe view (requires WebGL).

§ Visibility from observer

Set your observer location to see the next 7 days of passes ≥ 10°. The values pass through the URL so the page stays shareable.

No JS? Fill the form by hand. The geolocation button needs JavaScript.